This is the latest recevied weather packets stored in our database for station/object KD7AWQ. If no packets are shown the sender has not sent any weather packets the latest 10 day(s).
| Time | Temp. | Humidity | Pressure | Rain* | Wind** | Luminosity | Snow |
|---|---|---|---|---|---|---|---|
| 1777925955 | 23.89° C | 17% | 1182.7 hPa | 0 mm | - | 571 W/m² | - |
| 1777925652 | 24.44° C | 17% | 1182.7 hPa | 0 mm | - | 538 W/m² | - |
| 1777925349 | 25° C | 16% | 1182.6 hPa | 0 mm | - | 775 W/m² | - |
| 1777925046 | 24.44° C | 16% | 1182.6 hPa | 0 mm | - | 727 W/m² | - |
| 1777924743 | 23.89° C | 16% | 1182.3 hPa | 0 mm | - | 797 W/m² | - |
| 1777924438 | 23.89° C | 16% | 1182.6 hPa | 0 mm | - | 621 W/m² | - |
| 1777924135 | 23.89° C | 17% | 1182.8 hPa | 0 mm | - | 577 W/m² | - |
| 1777923831 | 24.44° C | 17% | 1182.7 hPa | 0 mm | - | 744 W/m² | - |
| 1777923527 | 23.89° C | 17% | 1182.8 hPa | 0 mm | - | 709 W/m² | - |
| 1777923224 | 24.44° C | 17% | 1182.8 hPa | 0 mm | - | 791 W/m² | - |
| 1777922923 | 24.44° C | 16% | 1183 hPa | 0 mm | - | 766 W/m² | - |
| 1777922621 | 25° C | 15% | 1182.8 hPa | 0 mm | - | 821 W/m² | - |
| 1777922319 | 23.89° C | 18% | 1182.8 hPa | 0 mm | - | 1007 W/m² | - |
| 1777922017 | 23.89° C | 17% | 1183 hPa | 0 mm | - | 908 W/m² | - |
| 1777921712 | 24.44° C | 16% | 1183.2 hPa | 0 mm | - | 761 W/m² | - |
| 1777921408 | 23.89° C | 16% | 1183 hPa | 0 mm | - | 864 W/m² | - |
| 1777921105 | 23.89° C | 17% | 1183.2 hPa | 0 mm | - | 665 W/m² | - |
| 1777920802 | 24.44° C | 17% | 1183.2 hPa | 0 mm | - | 535 W/m² | - |
| 1777920498 | 24.44° C | 16% | 1183.3 hPa | 0 mm | - | 786 W/m² | - |
| 1777920194 | 23.89° C | 17% | 1183.2 hPa | 0 mm | - | 939 W/m² | - |
| 1777919889 | 23.89° C | 17% | 1183.2 hPa | 0 mm | - | 751 W/m² | - |
| 1777919587 | 23.89° C | 17% | 1183.6 hPa | 0 mm | - | 952 W/m² | - |
| 1777919285 | 23.89° C | 17% | 1183.3 hPa | 0 mm | - | 889 W/m² | - |
| 1777918982 | 23.33° C | 18% | 1183.7 hPa | 0 mm | - | 875 W/m² | - |
| 1777918679 | 23.89° C | 17% | 1183.6 hPa | 0 mm | - | 986 W/m² | - |
* Rain latest hour (hover to see other rain measurements)
** Current wind speed in m/s (hover to see current wind gust speed)